Evenes, Norway

8:31 PM CEST on October 18, 2017 (GMT +0200)
Evenes

Weather History for ENEV - June, 2017

Change the Weather History Date:

Tuesday, June 20, 2017

  Actual Average Record
Temperature  
Mean Temperature 54 °F -  
Max Temperature 60 °F 58 °F 75 °F (2001)
Min Temperature 47 °F 48 °F 36 °F (2014)
Degree Days  
Heating Degree Days 12    
Growing Degree Days 4 (Base 50)    
Moisture  
Dew Point 46 °F    
Average Humidity 79    
Maximum Humidity 100    
Minimum Humidity 44    
Precipitation  
Precipitation 0.00 in - - ()
Sea Level Pressure  
Sea Level Pressure 29.56 in    
Wind  
Wind Speed 5 mph ()    
Max Wind Speed 12 mph    
Max Gust Speed -    
Visibility 6.2 miles    
Events Rain    
Averages and records for this station are not official NWS values.
T = Trace of Precipitation, MM = Missing Value Source: Averaged Metar Reports

Daily Weather History Graph

Daily Weather History Graph

Search for Another Location

Airport or City:

Trip Planner

Search our weather history database for the weather conditions in past years. The results will help you decide how hot, cold, wet, or windy it might be!

Date:

Astronomy

Jan. 01, 1970 Rise Set
Actual Time Sun does not rise Sun does not rise
Civil Twilight Sun does not rise Sun does not rise
Nautical Twilight Sun does not rise Sun does not rise
Astronomical Twilight Sun does not rise Sun does not rise
Moon 1:45 AM CEST (6/20) 5:24 PM CEST (6/20)
Length of Visible Light 24h 00m
Length of Day
24h 00m
Waning Crescent, 19% of the Moon is Illuminated
Jun 20
Waning Crescent
Jun 24
New
Jul 1
First Quarter
Jul 9
Full
Jul 16
Last Quarter

Hourly Weather History & Observations

Time (CEST) Temp. Dew Point Humidity Pressure Visibility Wind Dir Wind Speed Gust Speed Precip Events Conditions
12:00 AM 48 °F 48 °F 100% 29.59 in - SSW 6.7 mph - -  
12:50 AM 48.2 °F 48.2 °F 100% 29.56 in 6.2 mi South 5.8 mph - N/A Rain Light Rain
1:00 AM 48 °F 46 °F 92% 29.58 in - SSW 4.5 mph - -  
1:50 AM 48.2 °F 48.2 °F 100% 29.56 in 6.2 mi South 4.6 mph - N/A Rain Light Rain
2:00 AM 47 °F 47 °F 100% 29.58 in - South 2.2 mph - -  
2:20 AM 46.4 °F 46.4 °F 100% 29.56 in 6.2 mi Variable 2.3 mph - N/A   Drizzle
2:50 AM 46.4 °F 46.4 °F 100% 29.56 in 5.6 mi Variable 1.2 mph - N/A   Drizzle
3:00 AM 47 °F 47 °F 98% 29.58 in - SE 2.2 mph - -  
3:20 AM 48.2 °F 48.2 °F 100% 29.56 in 6.2 mi Variable 3.5 mph - N/A   Mostly Cloudy
3:50 AM 48.2 °F 46.4 °F 93% 29.56 in 6.2 mi South 4.6 mph - N/A   Overcast
4:00 AM 48 °F 47 °F 93% 29.57 in - SSE 4.5 mph - -  
4:20 AM 48.2 °F 46.4 °F 93% 29.56 in 6.2 mi South 5.8 mph - N/A   Overcast
4:50 AM 48.2 °F 46.4 °F 93% 29.56 in 6.2 mi SSW 6.9 mph - N/A   Overcast
5:00 AM 48 °F 46 °F 91% 29.57 in - South 4.5 mph - -  
5:20 AM 48.2 °F 46.4 °F 93% 29.56 in 6.2 mi SW 4.6 mph - N/A   Overcast
5:50 AM 48.2 °F 46.4 °F 93% 29.56 in 6.2 mi South 4.6 mph - N/A   Light Drizzle
6:50 AM 50.0 °F 46.4 °F 87% 29.53 in 6.2 mi SSW 4.6 mph - N/A   Overcast
7:00 AM 49 °F 46 °F 87% 29.56 in - SSE 4.5 mph - -  
7:50 AM 50.0 °F 46.4 °F 87% 29.53 in 6.2 mi South 4.6 mph - N/A   Overcast
8:00 AM 51 °F 45 °F 72% 29.55 in - SSE 4.5 mph - -  
8:50 AM 51.8 °F 42.8 °F 71% 29.53 in 6.2 mi SSE 3.5 mph - N/A   Mostly Cloudy
9:50 AM 53.6 °F 44.6 °F 72% 29.53 in 6.2 mi Variable 3.5 mph - N/A   Mostly Cloudy
10:20 AM 53.6 °F 42.8 °F 67% 29.53 in 6.2 mi Variable 2.3 mph - N/A   Mostly Cloudy
10:50 AM 51.8 °F 44.6 °F 76% 29.53 in 6.2 mi SW 4.6 mph - N/A   Mostly Cloudy
11:00 AM 54 °F 45 °F 63% 29.55 in - South 4.5 mph - -  
11:50 AM 57.2 °F 44.6 °F 63% 29.53 in 6.2 mi NW 4.6 mph - N/A   Mostly Cloudy
12:50 PM 55.4 °F 42.8 °F 63% 29.53 in 6.2 mi WNW 3.5 mph - N/A   Mostly Cloudy
1:50 PM 59.0 °F 44.6 °F 59% 29.53 in 6.2 mi NNE 4.6 mph - N/A   Scattered Clouds
2:00 PM 59 °F 43 °F 44% 29.55 in - NNW 4.5 mph - -  
2:50 PM 60.8 °F 44.6 °F 55% 29.53 in 6.2 mi NNW 4.6 mph - N/A   Scattered Clouds
3:00 PM 61 °F 45 °F 45% 29.55 in - NNW 4.5 mph - -  
4:00 PM 56 °F 44 °F 53% 29.55 in - NNW 6.7 mph - -  
4:50 PM 57.2 °F 48.2 °F 72% 29.53 in 6.2 mi NNW 8.1 mph - N/A   Mostly Cloudy
5:00 PM 56 °F 44 °F 54% 29.56 in - NNW 6.7 mph - -  
5:50 PM 55.4 °F 46.4 °F 72% 29.56 in 6.2 mi NNW 8.1 mph - N/A   Scattered Clouds
6:50 PM 55.4 °F 46.4 °F 72% 29.56 in 6.2 mi NNW 11.5 mph - N/A   Scattered Clouds
7:00 PM 55 °F 46 °F 62% 29.57 in - NNW 11.2 mph - -  
7:50 PM 53.6 °F 46.4 °F 77% 29.56 in 6.2 mi NNW 10.4 mph - N/A   Scattered Clouds
8:00 PM 53 °F 46 °F 69% 29.59 in - North 8.9 mph - -  
8:50 PM 55.4 °F 46.4 °F 72% 29.59 in 6.2 mi North 10.4 mph - N/A   Scattered Clouds
9:00 PM 54 °F 47 °F 70% 29.60 in - North 11.2 mph - -  
9:50 PM 53.6 °F 48.2 °F 82% 29.59 in 6.2 mi North 8.1 mph - N/A   Scattered Clouds
10:00 PM 52 °F 47 °F 76% 29.62 in - North 8.9 mph - -  
10:50 PM 50.0 °F 46.4 °F 87% 29.62 in 6.2 mi North 9.2 mph - N/A   Scattered Clouds
11:00 PM 50 °F 47 °F 85% 29.63 in - North 8.9 mph - -  
11:50 PM 50.0 °F 46.4 °F 87% 29.62 in 6.2 mi North 9.2 mph - N/A   Mostly Cloudy